カタログに戻る

COSMOS 2252

運用中軍事PO
NORAD 22687·PAYLOAD·🇷🇺 Russia

打ち上げ Jun 24, 1993 から Plesetsk Cosmodrome

Loading…

次のパス (今後24時間)

TLE

最新Source: Space-Track

元期: Sep 14, 2026, 18:09 UTC

1 22687U 93038A   26257.75682485  .00000034  00000-0  12709-3 0  9994
2 22687  82.5864 170.7477 0008569 126.2880 260.3866 12.63335189531830

AllMySatでCOSMOS 2252をリアルタイム追跡

Download on the App Store